{"data":{"norad_id":62180,"intl_designator":"2024-225T","name":"STARLINK-32587","alt_names":[],"object_type":"PAYLOAD","status":"ACTIVE","operator":null,"country":"US","launch_date":"2024-11-30","launch_site_code":"AFWTR","launch_vehicle":null,"mission":null,"orbit_class":"UNKNOWN","rcs_meters":null,"size_class":null,"mass_kg":null,"dimensions":null,"purposes":["comms"],"wikipedia_slug":null,"has_3d_model":false,"image_url":null,"decayed_at":null,"tle_current":{"epoch":"2026-09-21T01:42:20.282112Z","epoch_age_seconds":128375,"freshness":"FRESH","line1":"1 62180U 24225T   26264.07106808  .00008366  00000+0  70789-3 0  9998","line2":"2 62180  70.0034  31.6457 0002993 250.9746 109.1089 14.98342342 99146","mean_motion":14.98342342,"eccentricity":0.0002993,"inclination_deg":70.0034,"raan_deg":31.6457,"arg_perigee_deg":250.9746,"mean_anomaly_deg":109.1089,"bstar":0.00070789,"rev_number":9914,"period_min":96.106207482455,"perigee_km":569.93754328043,"apogee_km":574.09790589857,"semimajor_km":6950.1547245895,"source":"CELESTRAK","updated_at":"2026-09-22T09:00:49.537688Z"}}}